This demonstration page uses our WeatherBlox Daily Observations layout. Learn more.

Left ArrowRight Arrow

34.74481, -87.66753

Hourly Observations for March 3, 2018

Temp ( °F °C ) Dew Point ( °F °C ) Humidity (%) Winds ( mph kmh ) Pressure ( in mb ) Visibility ( mi km ) Precip ( " mm )
12:53 am 00:53 Clear 44 6.7 28 -2.2 53 53 NE 7 11 30.35 1028 10 16 0.00 0.00
1:53 am 01:53 Clear 43 6.1 27 -2.8 53 53 ENE 7 11 30.35 1028 10 16 0.00 0.00
2:53 am 02:53 Clear 43 6.1 27 -2.8 53 53 NE 8 13 30.35 1028 9 14 0.00 0.00
3:53 am 03:53 Clear 41 5 27 -2.8 57 57 NE 6 9 30.35 1028 10 16 0.00 0.00
4:53 am 04:53 Clear 40 4.4 27 -2.8 60 60 NE 8 13 30.37 1028 10 16 0.00 0.00
5:53 am 05:53 Clear 39 3.9 27 -2.8 62 62 NE 8 13 30.37 1029 10 16 0.00 0.00
6:53 am 06:53 Sunny 39 3.9 28 -2.2 65 65 ENE 3 6 30.38 1029 10 16 0.00 0.00
7:53 am 07:53 Sunny 43 6.1 26 -3.3 51 51 ENE 12 19 30.40 1029 10 16 0.00 0.00
8:53 am 08:53 Sunny 47 8.3 27 -2.8 46 46 ENE 8 13 30.41 1030 10 16 0.00 0.00
9:53 am 09:53 Sunny 51 10.6 25 -3.9 36 36 ENE 8 13 30.40 1030 10 16 0.00 0.00
10:53 am 10:53 Sunny 54 12.2 24 -4.4 31 31 E 8 13 30.40 1029 10 16 0.00 0.00
11:53 am 11:53 Sunny 56 13.3 23 -5 28 28 E 7 11 30.38 1029 10 16 0.00 0.00
12:53 pm 12:53 Sunny 59 15 23 -5 25 25 Calm 30.35 1028 10 16 0.00 0.00
1:53 pm 13:53 Sunny 60 15.6 23 -5 24 24 ENE 7 11 30.33 1027 10 16 0.00 0.00
2:53 pm 14:53 Sunny 62 16.7 24 -4.4 23 23 NE 5 7 30.31 1027 10 16 0.00 0.00
3:53 pm 15:53 Sunny 62 16.7 23 -5 22 22 E 7 11 30.30 1026 10 16 0.00 0.00
4:53 pm 16:53 Sunny 60 15.6 22 -5.6 23 23 ENE 6 9 30.31 1026 10 16 0.00 0.00
5:53 pm 17:53 Clear 56 13.3 21 -6.1 26 26 ENE 7 11 30.30 1026 10 16 0.00 0.00
6:53 pm 18:53 Clear 54 12.2 23 -5 30 30 ENE 8 13 30.29 1026 10 16 0.00 0.00
7:53 pm 19:53 Clear 53 11.7 24 -4.4 32 32 NE 7 11 30.29 1026 10 16 0.00 0.00
8:53 pm 20:53 Clear 50 10 24 -4.4 36 36 ENE 8 13 30.29 1026 10 16 0.00 0.00
9:53 pm 21:53 Clear 48 8.9 25 -3.9 41 41 ENE 6 9 30.29 1026 10 16 0.00 0.00
10:53 pm 22:53 Clear 46 7.8 25 -3.9 44 44 ENE 5 7 30.29 1026 10 16 0.00 0.00
11:53 pm 23:53 Clear 45 7.2 25 -3.9 46 46 ENE 5 7 30.30 1026 10 16 0.00 0.00

Powered by AerisWeather